This demonstration page uses our WeatherBlox Daily Observations layout. Learn more.

Left ArrowRight Arrow

Hourly Observations for September 12, 2021

Temp ( °F °C ) Dew Point ( °F °C ) Humidity (%) Winds ( mph kmh ) Pressure ( in mb ) Visibility ( mi km ) Precip ( " mm )
12:53 am 00:53 Clear 75 23.9 45 7.2 34 34 ESE 10 17 29.96 1015 10 16 0.00 0.00
1:53 am 01:53 Clear 73 22.8 46 7.8 38 38 SE 9 15 29.96 1015 10 16 0.00 0.00
2:53 am 02:53 Clear 72 22.2 48 8.9 43 43 ESE 10 17 29.96 1014 10 16 0.00 0.00
3:53 am 03:53 Clear 70 21.1 50 10 49 49 SE 10 17 29.96 1015 10 16 0.00 0.00
4:53 am 04:53 Clear 69 20.6 51 10.6 53 53 SE 10 17 29.96 1015 10 16 0.00 0.00
5:53 am 05:53 Clear 65 18.3 51 10.6 61 61 ESE 7 11 29.96 1015 10 16 0.00 0.00
6:53 am 06:53 Clear 65 18.3 51 10.6 61 61 ESE 7 11 29.97 1015 10 16 0.00 0.00
7:53 am 07:53 Sunny 64 17.8 51 10.6 63 63 E 6 9 29.99 1016 10 16 0.00 0.00
8:53 am 08:53 Sunny 69 20.6 49 9.4 49 49 ESE 6 9 30.00 1016 10 16 0.00 0.00
9:53 am 09:53 Sunny 74 23.3 46 7.8 37 37 SSE 12 19 30.01 1016 10 16 0.00 0.00
10:53 am 10:53 Sunny 80 26.7 45 7.2 29 29 S 13 20 30.01 1016 10 16 0.00 0.00
11:53 am 11:53 Sunny 84 28.9 44 6.7 25 25 SSE 14 22 30.01 1016 10 16 0.00 0.00
12:53 pm 12:53 Sunny 87 30.6 39 3.9 18 18 SSE 15 24 29.99 1016 10 16 0.00 0.00
1:53 pm 13:53 Sunny 89 31.7 38 3.3 16 16 SSE 13 20 29.97 1015 10 16 0.00 0.00
2:53 pm 14:53 Sunny 91 32.8 36 2.2 14 14 SE 14 22 29.94 1014 10 16 0.00 0.00
3:53 pm 15:53 Sunny 92 33.3 29 -1.7 10 10 S 15 24 29.92 1013 10 16 0.00 0.00
4:53 pm 16:53 Sunny 92 33.3 34 1.1 13 13 SSE 13 20 29.90 1013 10 16 0.00 0.00
5:53 pm 17:53 Sunny 91 32.8 35 1.7 14 14 SE 14 22 29.90 1013 10 16 0.00 0.00
6:53 pm 18:53 Sunny 90 32.2 37 2.8 15 15 E 13 20 29.91 1013 10 16 0.00 0.00
7:53 pm 19:53 Sunny 87 30.6 40 4.4 19 19 ESE 9 15 29.91 1013 10 16 0.00 0.00
8:53 pm 20:53 Clear 81 27.2 41 5 24 24 E 7 11 29.93 1013 10 16 0.00 0.00
9:53 pm 21:53 Clear 79 26.1 43 6.1 28 28 ESE 9 15 29.95 1014 10 16 0.00 0.00
10:53 pm 22:53 Clear 78 25.6 47 8.3 33 33 SE 10 17 29.94 1014 10 16 0.00 0.00
11:53 pm 23:53 Clear 75 23.9 50 10 41 41 SE 9 15 29.94 1014 10 16 0.00 0.00

Powered by AerisWeather